Weather History for Olbia, Italy

Change the Weather History Date:

Monday, December 17, 2012

  Actual Average Record
Temperature  
Mean Temperature 56 °F -  
Max Temperature 62 °F 55 °F 64 °F (1997)
Min Temperature 50 °F 40 °F 30 °F (2013)
Degree Days  
Heating Degree Days 9    
Growing Degree Days 6 (Base 50)    
Moisture  
Dew Point 47 °F    
Average Humidity 73    
Maximum Humidity 88    
Minimum Humidity 55    
Precipitation  
Precipitation 0.00 in 0.09 in - ()
Sea Level Pressure  
Sea Level Pressure 29.92 in    
Wind  
Wind Speed 13 mph ()    
Max Wind Speed 28 mph    
Max Gust Speed 40 mph    
Visibility 6.2 miles    
Events      
Averages and records for this station are not official NWS values.
T = Trace of Precipitation, MM = Missing Value Source: Averaged Metar Reports

Daily Weather History Graph

Daily Weather History Graph

Search for Another Location

Airport:

Trip Planner

Search our weather history database for the weather conditions in past years. The results will help you decide how hot, cold, wet, or windy it might be!

Date:

Astronomy

Dec. 17, 2012 Rise Set
Actual Time 7:40 AM CET 4:55 PM CET
Civil Twilight 7:09 AM CET 5:26 PM CET
Nautical Twilight 6:35 AM CET 6:01 PM CET
Astronomical Twilight 6:01 AM CET 6:34 PM CET
Moon 10:38 AM CET (12/17) 10:00 PM CET (12/17)
Length of Visible Light 10h 16m
Length of Day
9h 14m
Waxing Crescent, 22% of the Moon is Illuminated
Dec 17
Waxing Crescent
Dec 20
First Quarter
Dec 28
Full
Jan 5
Last Quarter
Jan 11
New

Hourly Weather History & Observations

Time (CET) Temp. Dew Point Humidity Pressure Visibility Wind Dir Wind Speed Gust Speed Precip Events Conditions
12:20 AM 51.8 °F 48.2 °F 88% 29.98 in - SW 10.4 mph - N/A   Clear
12:50 AM 53.6 °F 48.2 °F 82% 29.98 in - SW 13.8 mph - N/A   Clear
1:20 AM 51.8 °F 48.2 °F 88% 29.98 in - SW 13.8 mph - N/A   Clear
1:50 AM 51.8 °F 48.2 °F 88% 29.98 in - SW 17.3 mph - N/A   Clear
2:20 AM 51.8 °F 48.2 °F 88% 29.98 in - SW 13.8 mph - N/A   Clear
2:50 AM 51.8 °F 48.2 °F 88% 29.98 in - SW 13.8 mph - N/A   Clear
3:20 AM 51.8 °F 48.2 °F 88% 29.98 in - SW 15.0 mph - N/A   Clear
3:50 AM 53.6 °F 48.2 °F 82% 29.95 in - SSW 13.8 mph - N/A   Clear
4:20 AM 53.6 °F 48.2 °F 82% 29.95 in - SW 8.1 mph - N/A   Clear
4:50 AM 50.0 °F 46.4 °F 87% 29.95 in - Variable 1.2 mph - N/A   Clear
5:20 AM 53.6 °F 50.0 °F 88% 29.92 in - SSW 9.2 mph - N/A   Clear
5:50 AM 55.4 °F 50.0 °F 82% 29.92 in - SSW 8.1 mph - N/A   Clear
6:20 AM 55.4 °F 50.0 °F 82% 29.92 in - SSW 6.9 mph - N/A   Clear
6:50 AM 55.4 °F 50.0 °F 82% 29.92 in - SSW 10.4 mph - N/A   Clear
7:20 AM 55.4 °F 50.0 °F 82% 29.92 in - SSW 12.7 mph - N/A   Clear
7:50 AM 55.4 °F 50.0 °F 82% 29.92 in - SW 13.8 mph - N/A   Clear
8:20 AM 57.2 °F 50.0 °F 77% 29.92 in 6.2 mi SSW 12.7 mph - N/A   Partly Cloudy
8:50 AM 57.2 °F 51.8 °F 82% 29.89 in 6.2 mi South 8.1 mph - N/A   Partly Cloudy
9:20 AM 59.0 °F 51.8 °F 77% 29.89 in 6.2 mi South 9.2 mph - N/A   Partly Cloudy
9:50 AM 59.0 °F 53.6 °F 82% 29.89 in 6.2 mi South 8.1 mph - N/A   Scattered Clouds
10:20 AM 60.8 °F 53.6 °F 77% 29.92 in 6.2 mi SW 8.1 mph - N/A   Scattered Clouds
10:50 AM 60.8 °F 51.8 °F 72% 29.89 in 6.2 mi WSW 12.7 mph - N/A   Scattered Clouds
11:20 AM 62.6 °F 50.0 °F 63% 29.89 in 6.2 mi WSW 20.7 mph - N/A   Scattered Clouds
11:50 AM 62.6 °F 48.2 °F 59% 29.89 in 6.2 mi West 19.6 mph - N/A   Scattered Clouds
12:20 PM 62.6 °F 48.2 °F 59% 29.89 in 6.2 mi West 20.7 mph - N/A   Scattered Clouds
12:50 PM 60.8 °F 48.2 °F 63% 29.89 in 6.2 mi West 18.4 mph - N/A   Scattered Clouds
1:20 PM 60.8 °F 48.2 °F 63% 29.89 in 6.2 mi WSW 16.1 mph - N/A   Scattered Clouds
1:50 PM 60.8 °F 46.4 °F 59% 29.86 in 6.2 mi WSW 20.7 mph - N/A   Scattered Clouds
2:20 PM 60.8 °F 44.6 °F 55% 29.86 in 6.2 mi WSW 25.3 mph 36.8 mph N/A   Scattered Clouds
2:50 PM 59.0 °F 46.4 °F 63% 29.86 in 6.2 mi WSW 20.7 mph 32.2 mph N/A   Scattered Clouds
3:20 PM 59.0 °F 44.6 °F 59% 29.86 in 6.2 mi WSW 23.0 mph - N/A   Scattered Clouds
3:50 PM 57.2 °F 44.6 °F 63% 29.86 in 6.2 mi WSW 27.6 mph - N/A   Scattered Clouds
4:20 PM 57.2 °F 44.6 °F 63% 29.89 in 6.2 mi WSW 20.7 mph 32.2 mph N/A   Scattered Clouds
4:50 PM 57.2 °F 44.6 °F 63% 29.89 in 6.2 mi SW 20.7 mph - N/A   Scattered Clouds
5:20 PM 55.4 °F 44.6 °F 67% 29.89 in 6.2 mi SW 19.6 mph - N/A   Scattered Clouds
5:50 PM 55.4 °F 42.8 °F 63% 29.89 in 6.2 mi SW 19.6 mph 32.2 mph N/A   Partly Cloudy
6:20 PM 55.4 °F 44.6 °F 67% 29.89 in 6.2 mi SW 19.6 mph - N/A   Partly Cloudy
6:50 PM 55.4 °F 44.6 °F 67% 29.92 in 6.2 mi WSW 18.4 mph - N/A   Partly Cloudy
7:20 PM 55.4 °F 44.6 °F 67% 29.92 in 6.2 mi WSW 13.8 mph - N/A   Partly Cloudy
7:50 PM 55.4 °F 44.6 °F 67% 29.92 in 6.2 mi WSW 13.8 mph - N/A   Partly Cloudy
8:20 PM 55.4 °F 44.6 °F 67% 29.92 in 6.2 mi WSW 18.4 mph - N/A   Partly Cloudy
8:50 PM 55.4 °F 44.6 °F 67% 29.92 in 6.2 mi West 17.3 mph - N/A   Partly Cloudy
9:20 PM 55.4 °F 44.6 °F 67% 29.92 in 6.2 mi WSW 24.2 mph - N/A   Partly Cloudy
9:50 PM 57.2 °F 44.6 °F 63% 29.92 in 6.2 mi West 20.7 mph 32.2 mph N/A   Partly Cloudy
10:20 PM 57.2 °F 44.6 °F 63% 29.92 in 6.2 mi WSW 23.0 mph - N/A   Partly Cloudy
10:50 PM 55.4 °F 44.6 °F 67% 29.92 in 6.2 mi West 25.3 mph 40.3 mph N/A   Partly Cloudy